map of IKA home
Great Circle Mapper logo
IKA - Airport
Location
City:  Tehran, Iran
Near (Alt.):Teheran
Name:Imam Khomeini International Airport
Old (Alt.):Ahmadabad
ICAO / IATA:OIIE / IKA

Details
Type:Airport (Aerodrome, Airfield)
Use:International (customs port of entry)
Latitude:3524'58"N (35.416111)
Longitude:5109'08"E (51.152222)
Datum:WGS 1984
Elevation:3305 ft (1007 m)
Variation:4.50E (WMM2015 magnetic declination)
0.06 annual change
Runways:2
Longest:13940 × 148 ft (4249 × 45 m), paved

Time
Time Zone:UTC+3:30 (DST+4:30)
Local Time:

Weather
METAR:OIIE 060200Z 30020G35KT 9999 FEW045 02/M07 Q1019
TAF:OIIE 051700Z 0518/0624 31007MPS 7000 FEW035 SCT100
TEMPO 0520/0603 30008G15MPS 6000 FEW030CB SCT040 BKN100
BECMG 0605/0606 35009MPS 8000 SKC

Related Locations
Nearby:
Farthest:GMR: 11508 mi / 18521 km
Mangareva [Totegegie], Gambier Islands, PF

Find:

   beyond  
but within

Other Information
Maps:
NOTAMs:
Links:
Sources:

  
flag of Iran   

Sectional Chart

Flight Planning
at skyvector.com

Satellite Image

Google Maps Satellite View

 

Copyright © 2004-2015 Karl L. Swartz. All rights reserved.
The Great Circle Mapper name and logo are trademarks of the Great Circle Mapper.
All other trademarks mentioned herein belong to their respective owners.
Please see credits for attibutions and further copyright information.

  Follow gcmap on Facebook Follow gcmap on Twitter Follow gcmap on Google+

hCard Microformat

Geo Microformat